Wind_Speed
16 16 15 14 14 13 13 13 14 14 15 16 17 17 17 16 15 14 13 13 13 13 14 15 16 17 17 18 20 22 23 23 24 23 22 21 19 16 14 13 13 12 11 11 10 10 10 10 9 7 7 7 7 7 7 7 7 7 7 8 8 8 8 7 7 6 5 5 5 5 5 5 6 6 6 6 6 6 6 6 6 5 5 5 6
15 15 14 13 13 12 12 12 12 12 13 14 14 15 15 14 14 13 13 12 12 12 12 14 15 16 17 18 19 21 23 22 23 24 24 23 19 16 14 13 13 13 12 11 10 10 10 9 7 6 7 7 6 6 6 7 7 7 7 7 7 7 7 6 6 6 5 5 5 5 5 6 6 6 6 6 6 6 7 7 6 6 5 5 5
13 13 13 12 11 11 12 12 11 11 11 11 12 13 13 13 13 13 12 11 11 11 12 13 14 15 16 17 18 20 22 22 23 25 26 24 20 16 14 13 14 13 12 12 11 11 10 9 7 6 6 6 5 5 6 6 6 7 7 7 7 7 7 6 6 5 5 5 5 5 6 6 6 6 6 6 7 7 7 7 7 7 6 5 6
12 11 11 10 10 10 11 11 11 10 10 10 11 11 12 12 13 12 11 11 11 11 11 12 13 14 15 16 18 19 20 21 22 25 26 25 21 16 15 14 14 14 12 12 11 11 11 9 7 6 6 5 5 5 5 5 6 7 7 7 7 7 6 6 5 5 5 5 5 5 6 6 6 6 6 6 7 7 8 8 8 7 7 7 7
11 10 9 9 9 9 9 10 10 9 9 10 10 10 10 11 12 12 11 10 10 10 11 11 12 14 15 16 17 18 19 20 21 23 25 25 22 17 15 15 15 14 12 12 11 11 11 9 7 6 5 5 4 4 5 5 6 7 7 7 7 6 6 6 5 5 4 4 4 5 5 5 5 5 5 6 6 7 7 7 8 8 7 7 7
11 10 9 8 8 8 8 9 9 9 10 10 10 10 10 11 11 11 10 10 10 10 10 11 12 13 14 15 16 17 17 19 20 22 23 24 23 18 16 16 16 14 13 12 12 11 11 10 8 7 6 5 5 5 5 6 7 7 8 8 7 7 6 6 5 5 4 4 4 4 4 4 4 4 5 5 6 7 7 7 7 8 7 7 6
12 10 8 8 8 8 8 9 9 10 11 11 11 11 10 11 11 11 10 10 10 10 10 11 12 12 14 15 16 17 17 18 19 20 22 23 22 19 16 16 16 16 14 13 12 12 12 11 9 7 6 5 5 5 5 6 7 7 7 7 7 7 6 6 5 5 4 4 4 4 4 4 4 4 5 5 6 7 7 7 7 7 7 7 7
11 10 8 7 7 7 8 9 10 11 11 12 12 11 10 10 11 11 10 10 10 10 10 11 11 12 13 14 16 17 17 17 18 19 20 21 21 20 17 15 16 17 15 13 12 12 12 11 9 7 6 5 4 4 4 5 6 6 7 6 6 6 6 5 5 5 5 4 4 4 4 4 4 4 5 6 6 6 7 7 6 6 7 7 7
11 10 8 7 7 6 8 9 10 11 12 12 12 11 9 9 11 11 11 10 10 10 11 11 11 12 13 14 16 17 17 18 18 18 18 20 20 20 17 15 16 17 16 14 12 11 11 11 9 7 5 4 4 4 4 4 5 6 7 7 7 6 5 5 5 5 5 5 5 4 4 4 5 5 5 6 6 6 7 7 6 6 6 7 7
11 10 9 7 7 7 8 9 10 11 11 11 11 10 9 9 11 11 11 11 11 11 12 12 12 12 13 14 16 17 18 18 18 17 17 19 19 19 18 16 15 16 16 14 12 11 10 11 9 7 5 4 3 4 4 4 5 6 7 7 7 6 5 5 5 5 5 5 5 5 5 6 6 6 6 6 6 7 7 7 7 7 7 7 7
10 10 9 8 8 8 9 9 10 10 11 11 10 9 8 9 11 11 11 11 12 13 13 14 13 13 14 15 16 17 18 18 18 18 17 18 18 18 17 16 14 15 16 15 13 11 10 10 9 7 5 4 4 4 4 4 5 5 6 6 6 6 5 4 4 4 5 5 5 5 6 6 6 6 6 6 6 7 7 7 7 7 7 7 7
10 9 9 9 9 9 9 10 10 11 11 11 9 8 9 10 11 11 12 12 12 13 14 16 15 14 15 15 16 17 17 17 18 18 17 17 17 17 17 16 14 14 15 15 13 12 10 10 9 8 5 4 4 4 5 5 5 5 5 6 5 5 5 5 5 5 5 5 5 6 6 7 7 7 7 7 7 7 7 8 8 8 8 8 8
10 10 9 9 9 9 9 10 11 12 12 11 11 9 9 10 11 11 12 12 13 14 15 17 17 16 16 17 17 17 17 16 17 18 17 17 17 16 16 16 14 13 14 15 13 12 10 10 9 8 6 4 4 5 5 5 5 5 6 6 5 5 5 6 7 7 7 7 7 7 7 8 8 8 8 8 7 7 7 7 8 8 8 8 8
10 10 10 9 9 8 9 10 12 13 12 12 12 11 10 10 11 11 12 13 13 14 16 18 20 19 18 19 19 17 18 17 16 18 18 17 16 15 15 15 13 12 12 14 14 12 11 10 10 9 8 5 5 5 5 6 5 5 6 5 5 5 6 7 8 8 9 9 8 8 8 7 7 8 8 8 7 7 7 7 7 8 8 9 9
10 10 10 9 9 9 10 11 12 13 13 12 12 12 11 10 10 11 12 13 14 15 16 18 20 20 19 21 20 18 19 18 16 17 18 17 17 16 14 14 13 11 11 13 13 12 11 10 10 10 9 7 6 6 6 7 7 6 6 6 5 5 5 6 7 8 8 8 8 7 7 6 6 7 7 7 7 7 6 6 7 7 8 8 9
10 10 9 9 9 9 10 12 13 14 14 13 12 11 11 10 10 11 12 14 15 16 16 17 19 20 20 20 19 18 18 18 17 17 18 17 17 16 14 13 13 11 10 11 13 13 11 11 11 10 10 9 8 7 7 8 8 7 7 7 5 5 5 5 6 7 7 7 7 7 6 6 6 6 7 7 7 7 7 7 7 7 7 8 8
9 10 9 9 9 10 11 12 13 14 14 14 13 12 11 11 11 11 13 14 15 17 17 17 18 18 19 19 19 19 19 19 19 18 18 18 17 16 14 13 12 11 10 9 11 12 11 11 11 11 10 10 10 9 8 9 9 8 8 8 7 6 5 5 6 7 8 7 7 7 6 6 6 6 7 7 7 7 7 7 7 7 7 8 8
10 10 9 9 10 11 12 13 14 15 15 15 13 12 12 12 12 12 13 15 16 17 17 16 17 18 19 19 20 21 20 20 20 19 19 19 18 17 16 15 13 10 10 9 10 12 12 11 11 11 11 10 10 10 9 11 10 9 9 9 8 7 6 6 7 8 9 8 7 7 6 5 6 6 7 7 7 7 7 7 8 8 8 8 9
11 11 11 11 12 12 13 14 15 15 16 15 14 13 12 12 12 13 14 15 16 17 17 17 17 18 19 19 19 20 20 20 21 20 20 20 19 18 18 17 13 11 10 9 9 11 12 11 11 12 11 11 10 10 10 11 12 11 10 10 10 8 8 8 9 9 10 9 8 7 7 6 6 6 7 7 7 7 7 7 8 8 8 8 9
11 12 12 12 13 13 14 14 15 15 16 16 15 13 13 13 13 14 15 16 16 16 17 18 19 20 21 22 22 22 22 21 21 21 21 20 20 19 19 17 14 12 12 10 9 10 11 11 11 12 12 12 10 10 11 12 13 12 11 10 11 10 10 11 11 10 10 10 8 8 7 7 7 7 7 7 8 8 7 7 7 7 8 8 9
12 12 12 13 13 14 14 14 15 15 16 16 15 14 14 14 14 15 16 17 17 17 19 20 21 23 24 24 23 23 23 22 22 22 22 22 21 19 18 17 15 14 13 11 10 9 11 11 11 12 13 13 11 10 10 12 12 13 12 11 11 11 11 12 11 11 11 11 10 9 8 8 9 9 9 9 8 8 8 8 7 7 7 8 8
12 12 12 12 13 13 14 14 14 15 15 16 15 14 14 14 15 16 17 17 18 19 20 22 23 24 25 25 25 24 24 23 22 23 23 24 23 20 19 19 18 17 14 12 11 10 10 11 11 12 13 14 12 11 11 11 11 12 12 12 11 11 11 12 12 12 12 12 11 11 10 10 10 10 10 10 10 9 8 8 8 7 7 7 8
12 12 12 12 13 13 14 14 14 14 15 15 14 14 14 14 15 16 17 18 19 20 22 23 25 26 27 27 26 26 25 24 24 24 25 26 26 23 20 20 20 17 15 13 13 12 11 11 11 11 13 13 13 12 12 11 11 11 12 12 12 12 11 11 11 11 12 12 12 12 12 12 11 11 11 11 11 10 9 9 9 8 7 7 7
12 12 12 13 13 14 13 13 13 14 14 14 14 15 15 16 16 17 18 19 20 22 23 24 26 27 28 28 27 27 27 26 26 26 27 27 27 25 21 19 19 16 15 14 14 14 11 11 11 11 12 13 13 13 13 12 12 12 12 12 11 11 10 10 10 11 11 11 11 11 12 12 13 12 11 11 11 11 9 9 9 9 8 8 8
13 13 13 13 14 14 13 13 13 14 14 15 15 15 16 17 17 18 19 21 22 23 23 25 27 28 28 27 27 27 28 27 26 27 28 28 28 26 23 19 19 18 16 16 16 15 13 11 10 11 12 13 13 13 13 13 12 13 12 11 11 10 10 10 10 10 11 10 10 11 11 12 12 12 12 11 12 12 11 10 9 9 9 9 8
13 13 13 14 14 14 14 13 13 14 15 16 16 17 17 18 19 20 21 22 23 23 23 25 27 28 27 26 25 25 27 27 26 26 27 28 28 27 25 22 21 20 18 17 17 16 14 12 11 11 12 14 14 14 14 13 13 14 13 12 11 10 10 10 10 11 11 10 10 11 12 12 12 12 12 12 13 13 12 11 10 9 9 8 8
14 14 14 14 15 15 15 14 14 15 16 17 18 19 19 20 21 21 21 22 23 23 24 25 27 27 26 24 23 25 27 27 27 27 27 27 27 27 26 23 22 21 18 18 18 17 15 12 11 11 13 14 15 14 14 14 14 14 14 12 11 11 10 11 11 11 11 11 10 11 12 13 13 13 13 13 14 14 13 11 10 10 9 9 8
15 15 15 15 16 16 15 15 16 16 18 19 20 20 21 21 21 21 22 23 23 23 24 25 27 26 25 24 23 24 26 26 26 26 27 26 25 27 26 23 23 21 19 20 18 17 15 12 12 12 14 15 15 15 14 15 15 15 14 13 12 11 11 12 12 12 11 11 11 12 12 12 12 12 12 13 13 13 12 11 10 9 9 9 8
16 16 16 17 17 16 16 17 17 18 19 20 21 21 22 22 22 22 23 23 23 24 24 26 27 26 26 26 23 22 23 23 23 22 23 24 23 25 24 21 22 21 19 20 18 16 15 13 13 13 14 16 16 15 15 15 15 15 15 14 12 12 12 13 13 13 11 10 10 11 11 11 10 11 11 12 12 12 12 10 9 9 9 9 8
17 17 17 17 17 17 17 18 19 19 20 20 21 22 22 22 23 23 23 23 23 24 25 26 27 26 26 26 23 21 22 22 22 21 20 21 22 23 22 20 21 21 19 19 18 16 15 13 14 15 15 17 16 16 16 16 16 16 15 14 13 12 13 13 14 13 11 10 10 11 11 11 10 10 10 10 11 11 11 10 9 9 8 8 8
18 18 18 18 18 18 19 19 19 19 20 20 21 21 22 22 23 23 23 22 22 23 24 25 26 25 25 24 21 21 22 22 22 22 21 20 21 21 21 20 21 22 20 19 18 16 16 14 15 16 17 17 17 16 17 17 16 16 15 13 13 13 13 14 14 13 11 10 11 11 11 11 10 9 8 9 9 10 10 9 8 8 8 8 8
19 19 19 18 19 19 20 19 19 19 20 20 21 21 22 22 22 22 22 22 22 23 24 25 24 24 23 22 21 22 23 22 22 22 21 20 19 20 22 21 21 22 20 18 18 18 17 15 16 18 18 18 17 17 17 17 17 16 15 13 13 13 13 14 14 13 11 11 11 11 11 11 10 9 8 8 8 8 8 8 8 8 8 8 8
20 20 20 20 20 20 20 20 20 20 20 21 22 22 22 22 22 21 22 22 23 24 24 23 23 22 22 22 22 22 22 22 20 19 19 19 19 19 21 23 22 22 20 19 19 19 18 16 18 19 20 20 18 17 18 18 17 17 16 14 13 13 14 15 15 13 12 11 12 12 11 11 10 9 8 7 7 7 7 7 7 7 8 8 8
21 21 21 21 20 20 20 20 20 21 21 22 22 22 22 22 22 22 22 24 24 24 24 23 22 22 22 22 22 22 22 22 20 18 17 18 18 18 20 22 23 22 20 20 20 20 18 17 19 21 21 20 19 18 18 18 18 17 16 15 14 14 14 15 16 14 12 12 12 12 11 11 10 9 8 7 6 7 7 7 7 8 8 8 8
20 20 20 20 19 19 19 20 20 20 21 21 22 22 22 22 22 23 24 25 25 25 24 24 23 22 22 23 23 23 23 23 22 20 19 17 18 19 20 21 23 22 21 21 21 21 19 18 20 21 22 21 20 19 19 18 18 17 16 15 14 14 15 16 16 14 13 12 12 12 11 11 10 8 7 6 6 6 6 6 7 7 7 7 7
19 18 19 19 19 18 18 19 19 19 20 21 22 22 22 23 23 24 25 26 26 25 23 24 24 22 22 22 22 24 24 23 22 21 19 17 17 19 20 20 23 23 22 22 21 21 20 19 21 21 22 22 21 20 19 18 18 17 17 16 15 15 16 17 16 15 13 13 13 12 12 11 10 8 8 7 6 6 5 6 6 6 7 7 7
18 18 19 19 19 19 18 18 18 19 20 21 21 22 23 24 25 25 25 25 25 23 22 24 24 22 22 21 21 25 25 22 21 21 20 18 19 20 19 21 24 24 23 23 21 21 20 20 21 21 22 22 21 20 19 18 17 17 17 16 15 15 16 17 16 15 14 14 14 13 12 11 10 9 8 7 6 6 6 6 6 6 7 7 7
19 19 20 20 19 19 19 19 19 20 21 21 21 22 24 24 24 24 24 23 22 21 22 24 23 21 20 20 21 24 24 22 21 22 21 21 22 22 20 21 24 25 24 23 22 22 21 20 20 21 22 22 22 20 19 18 17 17 17 16 15 15 15 16 16 15 14 14 14 13 12 12 11 10 8 7 7 7 7 6 6 7 7 7 7
20 21 21 21 21 20 20 20 20 21 21 21 22 23 24 24 23 22 20 20 20 21 23 24 24 22 21 20 21 22 22 24 24 23 23 22 23 24 21 21 24 25 25 23 22 23 21 20 20 21 23 23 22 21 19 18 18 17 17 15 15 14 15 16 16 16 15 15 15 13 13 13 12 11 9 8 8 7 7 7 7 7 8 8 7
19 21 21 21 21 21 21 21 21 22 21 21 22 24 25 25 23 21 19 17 19 22 23 23 23 23 23 22 20 19 20 22 25 25 24 23 23 24 22 21 23 25 25 23 22 23 21 19 20 21 22 23 23 21 20 19 18 17 17 16 15 14 14 16 16 16 15 15 15 14 13 13 12 12 11 9 8 8 8 7 7 8 9 9 8
20 20 21 22 22 22 21 21 21 22 21 21 23 24 25 26 24 23 21 19 19 20 19 19 20 22 25 25 22 19 17 17 18 21 21 20 20 22 22 22 23 24 25 23 23 23 21 20 20 21 22 23 23 22 21 20 19 18 18 17 16 15 15 16 17 16 16 16 16 15 14 13 13 13 11 10 10 10 9 9 9 9 10 10 9
20 21 21 22 22 21 20 20 21 22 22 23 25 26 27 27 25 24 23 22 22 22 20 18 18 20 22 26 25 21 18 16 16 16 16 16 18 20 21 21 22 22 23 23 23 22 20 21 21 21 22 22 22 22 22 22 21 19 18 18 17 16 16 17 17 17 17 17 17 16 15 14 14 13 12 11 11 11 10 10 10 11 11 10 10
19 19 20 20 20 20 20 20 21 22 24 25 27 28 29 28 25 24 24 24 23 24 23 21 21 22 22 23 25 24 21 19 19 18 17 16 18 20 20 20 21 21 22 23 23 21 20 21 22 22 21 21 21 22 23 23 22 19 18 18 18 17 18 18 17 17 18 18 18 17 16 15 14 14 13 11 11 11 11 12 12 12 12 12 12
19 19 18 18 19 20 20 20 21 23 25 26 27 28 28 28 25 24 25 25 25 24 24 22 21 23 23 22 23 24 22 20 19 20 20 19 20 20 20 20 21 22 22 22 22 22 22 22 22 21 21 20 21 23 25 24 21 19 19 19 19 18 19 19 18 18 18 18 18 18 18 17 15 15 14 14 13 13 13 13 13 13 13 13 13
20 19 19 18 18 18 18 19 21 23 25 26 27 28 28 28 26 24 25 27 27 26 23 19 16 18 20 21 22 22 21 19 17 19 21 21 22 22 21 21 21 21 21 22 22 23 24 24 22 20 20 21 23 24 25 23 20 19 20 20 20 20 19 18 18 18 18 18 19 19 19 17 16 15 16 16 15 14 14 14 14 14 14 14 14
20 20 20 19 19 18 17 18 20 23 25 26 27 28 28 28 27 25 24 26 27 26 23 18 15 15 17 20 21 21 20 19 18 19 20 20 22 22 22 23 23 22 21 21 22 23 24 24 22 21 20 21 22 23 21 19 19 20 21 21 21 20 19 18 19 19 18 19 19 19 19 18 16 16 16 17 16 15 15 15 15 15 15 15 15
19 19 19 19 19 19 18 17 19 21 25 26 28 29 29 29 28 26 25 27 28 26 23 19 16 15 16 18 20 21 22 21 21 20 19 17 18 19 21 24 24 23 21 20 20 21 22 22 22 21 21 20 21 20 19 18 19 20 20 20 21 21 19 18 19 19 19 19 18 19 19 18 17 17 17 17 17 16 16 16 17 17 17 16 16
18 18 19 19 19 19 18 18 19 21 23 25 27 29 29 29 29 27 26 27 28 26 23 22 19 16 16 18 19 21 23 23 22 22 20 16 14 16 19 24 25 23 21 19 19 20 21 21 22 21 21 21 20 19 18 18 19 19 19 19 20 21 20 19 19 18 18 18 18 19 19 19 18 18 18 18 18 17 17 17 18 18 18 17 17
18 19 20 20 19 18 18 19 21 22 23 24 25 27 28 29 29 28 28 28 28 26 24 23 20 17 17 17 18 20 23 24 23 22 21 17 14 14 15 20 24 23 20 19 19 20 21 21 22 21 21 21 19 18 18 18 19 18 18 18 19 20 20 19 19 18 18 17 18 19 19 18 18 18 18 18 19 18 18 19 19 19 19 18 17
17 19 20 21 20 20 19 20 22 23 24 25 24 25 26 27 27 28 29 29 28 26 24 23 21 19 19 19 20 20 21 23 23 22 21 19 16 14 12 14 18 21 19 19 20 21 21 22 21 21 21 20 19 18 18 18 19 18 17 17 18 19 19 19 18 18 17 17 18 18 18 18 17 17 18 19 19 19 19 20 20 20 19 18 17
16 18 20 21 21 21 21 22 24 26 26 27 26 26 26 26 26 27 28 28 28 26 25 24 24 22 21 21 22 21 20 20 22 23 21 19 17 16 15 14 15 19 20 20 21 21 21 21 21 20 20 20 20 19 19 19 19 18 17 17 18 18 18 18 18 17 16 16 17 18 18 17 17 18 18 19 19 19 20 20 20 20 19 18 18
Wind_Direction
323 326 325 323 322 324 324 322 323 325 325 328 329 328 330 331 329 328 330 331 335 342 347 352 354 356 358 1 2 1 3 3 5 8 11 13 14 15 14 11 8 6 3 2 0 3 8 14 24 38 52 58 55 56 57 54 51 47 45 44 44 46 48 50 52 52 47 37 28 19 13 7 3 1 358 356 351 348 346 349 352 2 13 20 31
321 322 321 320 322 322 319 317 320 323 325 327 326 325 327 328 324 321 323 325 331 338 346 352 353 355 357 359 1 1 3 1 2 6 12 15 15 15 13 10 9 7 5 2 1 4 9 16 27 43 57 63 59 57 56 53 51 49 47 45 42 42 43 45 46 46 43 37 30 22 18 13 10 8 5 359 353 349 347 348 351 1 18 26 35
316 317 317 318 319 318 316 315 317 321 324 325 323 322 325 324 319 315 317 320 326 335 345 351 351 353 354 356 359 360 1 360 360 4 11 16 15 13 11 9 10 10 7 2 1 4 9 13 23 40 55 63 65 61 56 52 49 46 44 40 36 35 35 36 38 39 37 33 30 26 23 20 17 12 7 360 353 349 346 347 349 356 8 17 32
310 315 317 316 314 312 312 311 313 319 322 320 318 318 322 320 313 310 312 317 323 333 343 348 347 349 350 352 355 356 358 358 359 1 8 15 14 11 8 7 10 12 9 4 2 4 7 11 16 31 46 54 60 58 55 51 47 42 38 36 34 34 33 35 38 40 37 33 31 31 29 25 19 12 4 357 350 345 345 346 348 352 355 1 14
310 317 316 312 306 304 305 306 311 318 317 313 311 312 315 312 305 303 307 313 320 329 338 342 342 344 345 346 348 351 354 356 357 358 3 12 14 9 5 5 7 10 10 7 5 4 5 8 12 22 35 42 46 45 43 42 39 36 36 38 39 40 39 36 38 40 37 33 33 34 32 27 17 8 359 351 346 343 343 345 347 349 351 356 4
316 319 312 305 298 298 301 304 312 316 313 308 309 311 311 304 298 298 302 308 315 323 330 334 337 340 341 340 341 343 348 352 354 355 359 7 13 9 4 3 4 7 10 9 7 4 2 4 9 17 28 33 33 31 31 31 31 30 34 40 43 43 40 35 33 32 31 29 28 29 27 20 11 1 353 348 346 345 344 344 346 347 348 352 357
320 316 307 300 294 298 301 305 313 315 312 310 310 312 309 300 295 295 298 304 309 315 321 326 331 334 333 333 334 335 340 346 349 352 356 3 10 9 2 1 3 5 8 9 8 4 360 0 4 12 24 28 25 22 22 26 25 27 33 41 46 45 41 34 30 28 24 21 21 20 17 10 1 355 349 346 345 345 343 341 340 342 343 345 347
315 309 302 297 295 299 302 309 315 315 312 310 310 311 306 297 293 291 293 296 300 305 312 317 322 325 325 326 328 330 334 339 344 347 351 358 6 8 1 358 2 5 6 6 6 4 359 356 358 5 18 23 20 16 14 19 21 24 29 37 42 44 40 35 29 25 18 14 12 8 6 1 356 351 348 343 340 339 337 336 333 334 337 339 339
307 303 300 299 300 302 306 314 316 313 311 310 310 309 303 293 288 287 286 286 290 295 301 306 310 314 314 319 324 328 330 332 337 342 347 352 360 5 1 357 360 4 5 3 2 3 358 353 353 358 8 11 9 3 2 10 17 20 21 26 30 31 31 32 28 21 13 6 2 359 359 359 356 352 347 339 334 332 331 330 329 329 330 331 331
306 303 303 305 307 309 313 316 313 310 308 309 309 306 296 287 283 282 279 278 282 285 291 295 299 302 305 312 320 326 329 327 330 337 343 346 353 1 359 356 356 1 4 1 357 358 357 351 348 349 354 353 350 346 348 360 10 13 14 18 21 19 17 20 24 19 8 360 359 359 1 1 356 352 346 338 331 328 327 327 326 326 325 324 323
310 308 310 312 313 315 317 316 311 309 310 310 309 303 290 280 278 277 274 274 277 281 287 289 292 295 297 303 311 323 328 324 326 331 337 340 346 354 356 354 353 356 2 2 354 352 354 349 343 340 340 337 333 332 335 348 1 6 9 15 19 16 9 7 11 12 5 3 5 4 5 1 356 352 346 338 331 326 325 325 325 323 320 316 314
314 314 315 316 318 320 319 314 310 312 317 316 310 302 288 279 276 275 274 275 277 280 284 286 289 289 292 295 299 314 324 321 321 326 331 333 337 347 350 350 350 350 356 1 354 347 347 344 339 333 330 325 319 319 325 335 349 359 7 13 17 14 8 3 1 2 4 5 6 5 5 2 357 352 345 338 332 327 324 323 322 320 314 310 307
317 317 316 317 321 321 317 315 314 318 322 320 312 301 291 284 280 280 278 278 279 282 286 289 290 289 288 287 288 303 318 317 315 319 324 327 330 339 344 344 346 345 349 357 355 344 339 337 333 328 322 309 303 305 316 325 337 352 1 7 10 8 3 360 357 356 357 358 359 2 4 1 356 350 344 338 332 328 325 322 319 315 310 306 303
318 316 315 316 319 317 314 315 319 322 323 320 311 303 297 293 290 285 282 282 284 287 291 293 293 294 292 282 279 296 312 312 311 313 317 320 323 329 336 338 340 341 342 351 353 343 332 329 326 322 315 300 290 295 306 315 323 339 347 352 357 356 354 353 352 351 352 352 354 357 360 357 352 347 343 337 330 326 323 320 316 312 309 306 304
315 313 314 315 315 313 313 317 322 323 321 316 308 304 299 294 290 285 284 287 289 291 292 294 295 298 298 285 277 292 307 307 304 305 309 313 316 321 327 330 333 334 336 343 349 343 329 322 320 316 312 302 289 291 299 305 310 324 334 337 341 343 343 346 345 346 348 347 348 349 350 348 346 343 340 335 329 324 319 315 312 309 306 306 305
308 309 311 311 310 311 315 319 321 320 317 311 304 300 297 289 282 280 283 285 287 287 287 291 294 296 300 291 282 291 301 300 297 297 301 305 309 312 316 320 324 326 326 334 342 342 329 316 314 312 310 304 293 290 294 297 302 315 328 328 327 327 331 339 340 342 343 341 340 339 338 338 339 340 338 335 330 323 317 312 308 305 304 303 302
303 305 306 305 307 311 315 318 317 314 310 305 300 297 293 286 279 275 276 278 280 281 282 285 289 293 295 292 286 290 294 292 290 293 296 297 302 305 306 309 311 314 315 322 333 337 328 313 309 308 306 303 293 288 289 290 296 308 319 319 313 311 313 324 332 336 336 335 332 329 330 332 333 337 337 334 331 326 320 314 309 305 304 303 300
299 301 301 302 306 310 312 313 311 307 303 299 295 293 289 285 280 275 273 275 276 278 281 284 287 288 287 286 286 287 289 288 286 289 291 290 294 295 297 301 297 301 305 307 321 329 326 312 303 303 301 298 292 286 284 283 288 299 308 311 304 297 296 301 314 323 327 327 326 321 319 322 328 333 333 331 331 328 323 318 312 308 306 303 300
295 297 299 302 306 308 309 309 305 300 297 293 290 289 285 282 278 276 275 275 276 279 283 284 283 281 279 279 281 283 283 282 283 285 285 285 287 286 289 296 292 291 297 294 305 318 321 313 300 299 297 294 291 286 281 280 283 289 297 302 297 289 287 291 300 310 317 319 320 320 313 310 319 328 330 329 328 328 325 320 316 313 309 304 301
289 293 296 300 304 305 305 304 300 295 291 289 287 286 281 277 275 276 277 276 278 279 279 279 277 276 276 275 276 279 278 276 278 281 283 284 285 283 283 290 289 283 286 284 287 303 312 311 300 294 294 292 291 286 280 279 279 283 289 294 292 286 285 288 294 301 308 311 312 317 313 305 309 319 326 325 323 323 323 320 317 315 311 306 302
284 288 291 295 297 299 300 298 295 291 287 285 284 283 280 278 277 278 278 278 278 277 276 277 277 277 278 278 277 277 278 278 278 280 283 285 284 282 278 279 283 278 274 272 272 285 300 306 302 292 291 291 289 285 279 277 277 281 286 288 288 286 287 290 292 296 302 305 305 310 311 305 304 310 318 321 319 316 316 316 314 312 308 305 303
280 284 287 289 291 292 292 290 288 287 284 283 283 283 282 280 279 279 279 279 279 278 280 281 281 280 280 280 280 279 280 281 279 280 282 285 284 282 276 271 276 275 263 261 263 268 287 299 299 289 286 288 287 283 277 275 273 276 283 287 289 291 292 291 290 291 296 301 301 302 304 303 302 306 312 316 316 314 311 310 310 308 303 301 302
278 280 283 285 285 284 284 283 282 281 280 281 282 282 280 277 276 275 275 275 276 278 281 282 283 282 281 281 282 282 282 281 280 280 281 284 284 283 280 272 274 273 256 255 260 259 274 289 293 285 280 283 282 280 276 274 272 272 278 283 290 296 297 294 290 288 292 298 301 300 299 296 297 303 308 308 311 313 310 308 307 306 302 299 299
276 279 280 281 280 278 278 279 278 276 276 277 277 275 273 270 269 269 270 271 274 277 280 281 281 281 281 282 284 285 284 283 282 281 280 281 282 282 282 275 271 268 254 254 257 253 262 277 285 279 273 276 275 274 273 273 272 272 276 279 287 296 297 295 290 289 292 298 303 303 297 291 291 296 302 304 304 306 307 307 306 305 304 301 300
276 277 277 277 276 276 276 275 272 270 270 270 269 268 266 264 264 266 268 271 274 278 280 280 280 280 282 284 286 289 287 286 284 282 280 280 281 281 281 276 268 264 255 249 250 250 254 266 277 271 266 269 269 268 269 270 270 271 274 277 283 290 290 290 289 288 292 298 306 307 302 294 289 290 295 298 300 300 300 303 304 303 302 302 303
276 275 274 273 273 273 272 269 265 263 264 264 264 262 261 262 264 268 272 276 278 280 280 280 280 282 284 286 288 288 286 285 283 279 278 278 278 278 277 276 270 266 252 239 244 247 249 259 268 263 258 262 264 264 266 266 266 268 272 275 278 284 284 283 285 286 288 292 299 303 304 299 293 288 287 290 294 295 293 296 301 301 300 303 305
273 272 271 270 269 269 268 263 259 257 258 259 259 259 260 263 268 272 276 277 279 280 279 279 280 281 283 285 286 286 284 284 281 277 274 272 273 273 273 274 271 265 248 234 242 245 245 255 260 256 252 255 260 261 263 263 263 265 268 272 275 280 280 277 278 282 286 289 292 296 298 298 295 290 285 284 287 289 289 290 296 298 300 304 306
268 268 267 267 267 266 263 259 254 253 254 256 257 258 261 265 270 273 275 276 278 279 279 279 279 282 284 285 287 286 285 285 284 281 275 269 267 267 269 270 267 262 246 232 238 243 243 252 255 251 249 252 256 258 261 260 260 262 266 271 275 277 276 274 275 279 287 292 293 294 295 296 295 293 289 285 284 285 285 286 291 295 299 303 306
265 265 264 264 264 262 259 256 254 254 256 258 259 261 263 266 269 270 273 276 279 281 281 280 280 284 286 287 287 283 283 285 286 286 280 270 264 262 264 266 261 256 244 230 234 242 241 248 252 248 248 251 254 256 257 256 256 260 263 270 274 274 271 272 274 278 286 293 293 292 295 299 299 296 292 287 284 283 282 285 288 293 297 301 305
261 262 262 261 259 257 258 259 259 259 260 260 261 263 266 269 270 272 275 278 281 281 280 281 283 285 286 286 284 278 279 283 284 285 283 272 261 259 260 261 256 248 242 234 234 239 239 245 250 245 246 250 253 254 253 252 253 256 260 268 272 269 267 269 273 278 286 290 290 291 297 303 305 301 296 290 287 285 284 285 288 292 296 301 304
259 260 259 257 256 257 260 264 265 264 263 263 263 265 267 270 273 275 277 279 280 280 280 282 284 285 283 282 279 276 278 280 282 281 280 273 260 258 258 256 251 239 238 238 234 236 238 242 247 242 242 246 250 252 251 250 251 253 256 262 266 265 264 267 272 279 286 288 286 288 298 307 308 305 301 294 290 287 287 288 290 293 295 299 302
261 262 260 259 260 263 268 270 269 267 266 265 265 266 268 270 273 275 277 279 280 280 281 282 285 284 280 277 273 274 276 278 281 278 276 271 261 257 256 253 244 231 234 239 233 234 237 240 244 241 240 243 246 249 250 250 250 252 253 255 260 262 263 266 272 280 285 284 282 285 295 304 305 306 305 299 294 291 290 291 292 294 295 298 303
267 266 265 266 268 271 273 273 271 270 268 267 266 267 268 270 273 275 277 278 279 279 279 281 284 283 280 276 272 272 274 277 280 275 270 268 261 257 256 250 235 225 231 235 231 234 236 239 242 240 239 240 243 246 248 249 249 250 251 252 258 262 264 268 273 280 281 280 280 282 291 299 302 306 307 302 299 297 296 296 296 297 299 302 306
271 270 270 271 273 275 275 273 271 270 268 268 268 269 270 272 275 277 278 278 278 278 277 277 279 279 276 273 272 272 273 274 273 268 266 264 256 254 256 246 231 226 231 232 232 235 236 239 242 240 240 240 240 242 243 245 247 248 248 250 256 261 265 268 272 275 276 276 278 280 287 295 298 301 303 300 300 299 297 297 299 303 306 307 311
272 272 271 273 275 276 275 274 273 271 270 270 270 272 273 275 276 277 277 277 277 276 275 275 275 274 271 271 274 273 270 271 269 265 264 260 249 249 251 240 228 230 233 231 232 236 237 239 241 240 239 240 239 239 240 241 244 245 244 246 251 257 262 266 268 270 271 273 276 278 283 291 294 295 298 300 302 300 296 297 302 307 311 315 322
271 271 272 274 277 277 276 276 276 274 272 271 271 272 272 273 274 275 276 277 277 276 273 272 271 269 270 274 274 270 269 272 270 266 264 258 250 248 247 236 228 230 233 232 233 236 238 240 241 240 240 240 238 237 238 239 240 241 241 242 246 253 259 262 264 266 268 270 272 275 279 285 287 287 294 301 304 301 296 296 301 308 313 318 327
269 269 271 274 275 276 275 274 273 272 271 270 271 270 268 271 276 279 283 284 281 278 274 272 271 269 273 278 272 266 268 267 267 268 262 253 249 245 244 240 233 231 233 233 235 237 239 241 241 240 240 240 238 238 239 239 240 239 237 238 243 250 256 258 260 262 264 266 268 271 275 278 280 282 288 297 298 296 294 294 298 306 312 316 323
264 266 269 270 271 272 272 272 272 270 270 270 270 269 269 274 280 281 287 293 288 281 277 275 274 272 273 275 272 269 265 258 263 268 260 251 243 237 241 244 236 231 231 233 236 238 239 240 238 238 240 239 237 238 239 239 240 239 236 235 240 248 252 254 257 259 261 262 265 269 271 274 275 277 280 286 290 290 290 292 298 306 310 311 317
265 267 269 270 271 273 274 276 275 274 273 271 270 269 271 277 281 278 281 291 288 281 281 282 281 278 273 269 270 273 270 261 260 261 259 254 242 235 238 240 236 231 230 231 234 235 235 234 232 235 238 239 238 238 237 237 239 239 235 233 239 246 249 251 254 257 259 260 263 267 270 272 274 274 273 276 282 284 287 292 296 302 305 305 311
266 269 273 275 277 278 280 280 278 276 274 270 267 267 270 277 281 277 275 279 278 278 284 290 290 283 275 270 268 273 277 270 259 254 258 255 243 239 237 232 235 234 228 229 233 233 231 229 229 234 240 242 240 238 235 234 239 239 235 234 239 245 248 250 252 255 257 259 262 265 267 270 273 272 271 273 276 277 281 286 292 297 299 299 305
267 270 274 277 279 282 283 283 281 278 274 270 267 267 271 279 283 280 278 276 274 277 286 297 299 291 281 276 273 273 279 277 262 254 257 254 242 240 236 227 231 231 227 229 234 233 231 230 230 234 241 244 241 237 234 235 240 240 237 237 240 244 248 249 250 252 254 257 259 261 262 266 270 270 270 272 272 271 276 281 286 291 293 295 299
272 273 275 279 282 285 286 286 283 279 275 271 270 270 274 281 284 280 278 279 279 282 288 294 298 295 286 279 276 277 279 279 272 261 256 250 240 237 232 224 224 226 226 231 234 233 232 232 232 234 240 243 240 237 237 238 241 241 240 239 240 243 246 247 247 249 252 255 256 257 258 262 266 269 271 272 270 270 275 280 283 286 289 291 294
275 276 280 284 287 289 287 284 281 279 277 274 273 272 274 280 283 278 276 279 283 285 286 287 288 289 287 278 274 277 278 278 277 270 259 251 245 238 231 226 224 226 229 233 236 236 234 235 236 237 240 242 240 240 241 240 240 242 240 239 239 240 242 244 246 248 251 254 257 258 257 258 262 266 268 269 270 274 279 282 283 284 286 288 290
281 284 288 291 293 294 290 285 281 279 278 276 275 273 273 278 282 278 275 279 285 288 288 290 292 292 289 281 274 273 273 274 279 278 265 254 248 242 236 230 227 228 232 235 238 237 237 237 237 238 240 242 242 243 242 239 238 240 238 237 238 239 241 243 247 250 251 254 259 261 260 259 261 265 266 266 269 274 278 281 282 283 284 286 288
289 295 300 303 305 302 296 288 281 277 275 274 274 272 272 276 280 278 275 276 282 287 290 293 295 294 290 284 278 275 273 271 279 287 276 258 248 243 239 233 229 231 234 236 239 239 237 235 234 234 237 241 241 240 237 234 236 238 237 237 239 239 242 245 249 251 252 254 257 260 262 262 263 266 268 269 270 272 273 276 278 280 282 283 285
296 304 308 311 311 308 303 295 286 279 275 273 273 272 271 274 278 278 275 274 274 279 288 292 286 281 281 279 277 276 277 276 278 287 286 265 247 242 239 234 231 232 235 238 241 241 237 233 231 228 230 238 238 233 231 232 236 236 236 240 241 240 242 247 250 252 252 254 257 260 262 263 265 267 269 271 272 272 271 273 274 277 279 280 283
300 304 305 307 307 307 306 303 296 287 280 276 274 274 274 274 276 278 276 273 271 274 285 292 283 274 272 271 271 272 275 279 278 281 287 271 249 244 242 237 233 232 237 240 237 236 233 230 229 229 231 236 234 231 234 236 235 234 237 242 241 239 242 247 251 253 253 255 258 261 263 265 267 268 269 270 271 271 271 272 273 274 276 279 282
295 297 299 302 304 305 304 300 295 291 286 281 276 275 277 276 277 278 275 272 271 273 281 289 287 280 273 269 267 268 272 279 278 278 284 280 260 253 250 241 235 235 239 237 229 228 228 227 227 228 228 228 230 234 238 238 235 236 240 242 239 239 244 248 252 255 256 258 261 263 264 265 266 267 268 269 269 270 271 271 271 271 273 277 280
290 294 297 299 300 298 296 292 289 288 287 285 281 277 276 276 277 277 273 270 270 271 275 282 286 284 280 276 270 266 269 275 277 276 279 279 271 265 260 247 237 234 234 231 228 226 224 224 224 224 223 223 228 233 233 234 237 240 242 241 239 241 246 250 254 256 256 259 263 264 265 266 266 267 268 269 269 270 271 271 270 271 272 276 280
288 291 292 293 292 289 288 286 285 286 285 285 284 282 280 279 278 277 274 270 268 268 270 272 277 281 282 282 278 269 265 268 273 275 272 272 272 269 265 250 232 225 227 230 231 227 221 221 221 219 220 225 230 231 230 234 237 238 239 239 241 243 247 251 254 255 257 261 264 264 265 266 266 267 268 269 270 271 271 271 272 273 274 277 280
286 287 287 288 288 287 286 285 284 285 285 284 285 285 284 284 283 282 280 276 271 269 268 268 270 275 279 281 280 273 265 262 265 269 268 267 270 269 263 252 229 222 230 235 231 222 214 214 215 217 222 227 229 227 229 235 237 237 238 239 242 245 246 250 252 255 259 262 262 263 264 266 266 267 268 269 270 271 271 272 273 275 277 278 280
Height
5887 5887 5887 5886 5886 5885 5884 5884 5884 5883 5883 5882 5881 5880 5879 5878 5878 5877 5877 5876 5875 5875 5875 5875 5875 5875 5874 5874 5874 5873 5872 5871 5871 5869 5868 5866 5865 5865 5864 5864 5863 5863 5862 5861 5861 5860 5859 5858 5858 5857 5856 5856 5856 5855 5855 5855 5854 5854 5853 5853 5852 5852 5852 5852 5852 5852 5852 5851 5851 5851 5851 5851 5851 5851 5851 5851 5851 5851 5850 5850 5850 5849 5849 5849 5849
5886 5886 5886 5885 5884 5884 5884 5883 5883 5883 5882 5881 5881 5880 5879 5878 5877 5877 5876 5875 5875 5875 5875 5874 5874 5874 5874 5874 5873 5873 5872 5871 5871 5869 5868 5866 5865 5865 5864 5864 5863 5862 5862 5861 5861 5860 5859 5859 5858 5857 5857 5856 5856 5856 5855 5855 5855 5854 5854 5853 5853 5853 5852 5852 5852 5852 5852 5851 5851 5851 5851 5851 5851 5851 5851 5852 5852 5851 5851 5850 5850 5850 5849 5849 5849
5885 5885 5884 5884 5883 5883 5883 5882 5882 5882 5881 5881 5880 5880 5879 5877 5877 5876 5876 5875 5874 5874 5874 5874 5874 5874 5873 5873 5873 5873 5872 5871 5870 5869 5867 5866 5865 5865 5864 5863 5863 5862 5861 5861 5861 5860 5859 5859 5858 5858 5857 5857 5856 5856 5856 5855 5855 5855 5854 5854 5853 5853 5852 5852 5852 5852 5852 5852 5852 5852 5851 5851 5851 5851 5852 5852 5852 5851 5851 5850 5850 5849 5849 5849 5848
5884 5884 5883 5882 5882 5882 5882 5881 5881 5881 5880 5880 5880 5879 5878 5877 5876 5875 5875 5874 5874 5874 5873 5873 5873 5873 5873 5873 5873 5872 5872 5871 5870 5868 5867 5866 5865 5865 5864 5863 5862 5862 5861 5861 5860 5860 5859 5859 5858 5858 5857 5857 5857 5856 5856 5856 5855 5855 5855 5854 5854 5853 5853 5852 5852 5852 5852 5852 5852 5852 5852 5851 5851 5851 5852 5852 5852 5851 5851 5850 5850 5849 5849 5848 5848
5883 5882 5881 5881 5881 5881 5880 5880 5880 5880 5879 5879 5879 5878 5877 5876 5876 5875 5874 5874 5874 5873 5873 5873 5873 5873 5872 5872 5872 5872 5872 5871 5869 5868 5867 5867 5865 5864 5864 5863 5862 5861 5861 5860 5860 5860 5860 5859 5859 5858 5858 5857 5857 5856 5856 5856 5855 5855 5855 5854 5854 5853 5853 5853 5852 5852 5852 5852 5852 5852 5851 5851 5851 5851 5851 5851 5852 5851 5851 5850 5850 5850 5849 5849 5848
5881 5881 5880 5880 5879 5879 5879 5879 5879 5879 5879 5878 5878 5877 5876 5876 5875 5874 5873 5873 5873 5872 5872 5872 5872 5872 5872 5872 5872 5872 5871 5871 5869 5868 5867 5866 5866 5864 5864 5863 5862 5861 5860 5860 5860 5860 5860 5860 5859 5859 5858 5858 5857 5857 5856 5856 5855 5855 5854 5854 5854 5853 5853 5853 5853 5852 5852 5852 5852 5852 5851 5851 5851 5851 5851 5851 5851 5851 5851 5850 5850 5850 5849 5849 5849
5879 5879 5879 5879 5879 5878 5878 5879 5878 5878 5878 5877 5876 5876 5875 5874 5874 5873 5872 5872 5872 5871 5871 5872 5872 5872 5872 5872 5871 5871 5871 5870 5869 5868 5867 5866 5866 5865 5864 5863 5862 5861 5860 5859 5859 5859 5860 5860 5859 5859 5859 5858 5858 5858 5857 5856 5856 5855 5855 5854 5854 5854 5854 5853 5853 5853 5852 5852 5852 5852 5852 5851 5851 5851 5851 5851 5851 5851 5851 5850 5850 5850 5849 5849 5849
5878 5878 5878 5878 5878 5878 5878 5878 5877 5877 5877 5876 5875 5874 5874 5873 5873 5872 5871 5871 5871 5870 5871 5871 5871 5871 5871 5871 5871 5871 5870 5870 5869 5868 5867 5866 5866 5865 5864 5864 5863 5861 5860 5859 5859 5859 5860 5860 5860 5859 5859 5859 5859 5858 5858 5857 5856 5856 5855 5855 5854 5854 5854 5853 5853 5853 5852 5852 5852 5852 5852 5852 5851 5851 5851 5851 5850 5850 5850 5850 5850 5850 5849 5849 5849
5876 5877 5877 5877 5877 5877 5877 5877 5876 5876 5875 5875 5874 5873 5873 5872 5872 5871 5870 5870 5870 5870 5870 5870 5870 5871 5871 5870 5870 5870 5870 5869 5869 5868 5867 5866 5865 5865 5864 5864 5863 5862 5861 5860 5859 5859 5859 5860 5860 5860 5860 5859 5859 5859 5858 5857 5857 5856 5856 5855 5855 5854 5854 5854 5853 5853 5852 5852 5852 5852 5852 5851 5851 5851 5850 5850 5850 5850 5850 5850 5850 5850 5850 5849 5849
5875 5875 5876 5876 5876 5876 5876 5876 5875 5875 5874 5874 5873 5872 5872 5871 5871 5870 5869 5869 5869 5869 5869 5869 5870 5870 5870 5870 5869 5869 5869 5869 5868 5868 5867 5866 5865 5865 5864 5864 5863 5862 5861 5860 5859 5859 5859 5859 5859 5859 5860 5860 5860 5859 5858 5857 5857 5856 5856 5855 5855 5854 5854 5854 5853 5853 5853 5852 5852 5852 5852 5851 5851 5851 5850 5850 5850 5850 5850 5850 5850 5850 5850 5849 5849
5874 5874 5875 5875 5875 5875 5875 5874 5874 5873 5873 5872 5872 5871 5871 5870 5869 5869 5869 5868 5868 5868 5868 5868 5869 5869 5869 5869 5868 5868 5868 5868 5867 5867 5867 5866 5865 5865 5864 5864 5863 5863 5862 5861 5860 5860 5859 5859 5859 5859 5860 5860 5860 5859 5859 5858 5857 5856 5856 5855 5855 5855 5854 5854 5853 5853 5853 5853 5852 5852 5851 5851 5851 5850 5850 5850 5849 5849 5849 5849 5850 5850 5850 5850 5849
5873 5873 5873 5874 5874 5873 5873 5873 5872 5872 5872 5871 5870 5870 5869 5869 5868 5868 5868 5867 5867 5867 5867 5867 5868 5868 5868 5868 5867 5867 5867 5867 5867 5867 5867 5866 5865 5865 5864 5864 5863 5863 5862 5861 5860 5860 5860 5859 5859 5859 5859 5860 5859 5859 5859 5858 5857 5857 5856 5855 5855 5855 5854 5854 5854 5853 5853 5853 5852 5851 5851 5850 5850 5850 5849 5849 5849 5849 5849 5849 5849 5849 5849 5849 5849
5871 5872 5872 5872 5872 5872 5872 5871 5871 5871 5870 5870 5869 5868 5868 5868 5867 5867 5867 5867 5867 5866 5866 5866 5866 5867 5867 5867 5866 5866 5866 5867 5866 5866 5866 5866 5865 5865 5865 5864 5863 5862 5862 5861 5861 5860 5860 5859 5859 5859 5859 5860 5860 5859 5859 5859 5858 5857 5856 5855 5855 5854 5854 5854 5853 5853 5853 5852 5852 5851 5850 5850 5850 5849 5849 5849 5849 5849 5849 5849 5849 5849 5849 5849 5849
5870 5870 5871 5871 5871 5870 5870 5870 5870 5869 5869 5868 5868 5867 5867 5866 5866 5866 5866 5866 5866 5866 5866 5865 5865 5866 5867 5866 5865 5865 5865 5866 5866 5866 5866 5866 5865 5865 5865 5864 5863 5862 5862 5861 5861 5860 5860 5859 5859 5859 5859 5860 5860 5860 5860 5859 5858 5857 5856 5856 5855 5854 5854 5854 5853 5853 5852 5852 5851 5851 5850 5850 5850 5849 5849 5849 5848 5848 5848 5848 5848 5849 5849 5849 5849
5869 5869 5869 5869 5869 5869 5869 5869 5869 5868 5868 5867 5867 5866 5866 5866 5865 5865 5865 5865 5865 5865 5865 5865 5864 5865 5866 5865 5864 5864 5864 5864 5865 5865 5865 5865 5865 5864 5864 5864 5863 5862 5861 5861 5860 5860 5859 5859 5859 5858 5859 5859 5859 5859 5859 5859 5858 5858 5857 5856 5855 5854 5854 5853 5853 5853 5852 5852 5851 5851 5850 5850 5850 5849 5849 5848 5848 5848 5848 5848 5848 5848 5848 5849 5849
5868 5868 5868 5868 5868 5868 5868 5868 5867 5867 5867 5866 5866 5865 5865 5865 5864 5864 5864 5864 5864 5864 5864 5864 5864 5863 5864 5864 5863 5863 5863 5863 5863 5864 5864 5864 5864 5864 5864 5864 5863 5862 5861 5860 5860 5859 5859 5859 5858 5858 5858 5858 5859 5859 5859 5859 5858 5858 5857 5856 5855 5854 5854 5853 5853 5853 5852 5852 5851 5851 5850 5850 5849 5849 5849 5848 5848 5847 5847 5847 5847 5847 5848 5848 5848
5866 5867 5867 5867 5867 5867 5866 5866 5866 5866 5866 5865 5865 5864 5864 5863 5863 5863 5863 5863 5863 5863 5863 5863 5863 5862 5863 5863 5862 5862 5862 5862 5862 5862 5863 5863 5863 5863 5863 5863 5863 5862 5861 5860 5859 5859 5859 5858 5858 5857 5857 5857 5858 5858 5858 5858 5858 5858 5857 5856 5855 5854 5854 5853 5853 5853 5852 5852 5851 5851 5850 5849 5849 5848 5848 5848 5847 5847 5847 5846 5846 5846 5847 5847 5847
5865 5865 5865 5865 5865 5865 5865 5865 5865 5865 5864 5864 5863 5862 5862 5862 5862 5862 5862 5862 5861 5861 5861 5862 5862 5862 5861 5861 5861 5861 5861 5860 5860 5860 5861 5861 5862 5862 5862 5862 5862 5862 5861 5860 5859 5858 5858 5858 5858 5857 5857 5857 5857 5857 5857 5857 5857 5857 5857 5856 5855 5854 5853 5853 5852 5852 5852 5851 5851 5851 5850 5849 5849 5848 5848 5847 5847 5847 5846 5846 5846 5846 5846 5846 5846
5863 5864 5864 5864 5864 5864 5864 5864 5863 5863 5863 5862 5861 5861 5861 5861 5861 5861 5860 5860 5860 5860 5860 5860 5861 5860 5860 5860 5860 5859 5859 5859 5859 5859 5858 5859 5860 5860 5861 5861 5861 5861 5861 5860 5859 5858 5857 5857 5857 5856 5856 5856 5856 5856 5857 5856 5856 5856 5856 5856 5855 5854 5853 5853 5852 5852 5851 5851 5851 5850 5850 5849 5848 5848 5847 5847 5847 5846 5846 5846 5845 5845 5845 5845 5846
5862 5862 5863 5863 5862 5862 5862 5862 5862 5861 5861 5860 5860 5859 5859 5859 5859 5859 5859 5859 5859 5859 5859 5859 5859 5859 5858 5858 5858 5858 5858 5858 5858 5857 5856 5857 5858 5859 5859 5859 5860 5860 5860 5860 5858 5857 5856 5856 5856 5855 5855 5855 5855 5856 5856 5856 5855 5855 5855 5855 5855 5854 5853 5852 5852 5851 5851 5850 5850 5849 5849 5849 5848 5847 5847 5846 5846 5846 5845 5845 5845 5845 5845 5845 5845
5861 5861 5861 5861 5861 5861 5861 5860 5860 5860 5859 5859 5858 5858 5858 5858 5858 5857 5857 5857 5857 5857 5857 5857 5857 5857 5856 5856 5856 5856 5856 5856 5856 5855 5854 5854 5855 5857 5857 5858 5858 5859 5859 5859 5858 5856 5855 5855 5855 5855 5854 5853 5854 5855 5855 5855 5855 5854 5854 5854 5854 5853 5853 5852 5851 5851 5850 5850 5849 5849 5848 5848 5848 5847 5847 5846 5845 5845 5845 5844 5844 5844 5844 5844 5844
5859 5860 5860 5860 5860 5859 5859 5859 5858 5858 5858 5857 5857 5857 5856 5856 5856 5856 5855 5855 5856 5856 5855 5855 5855 5854 5854 5854 5854 5854 5854 5854 5854 5854 5853 5852 5853 5854 5855 5855 5856 5857 5857 5858 5857 5855 5855 5854 5855 5854 5853 5852 5853 5853 5853 5854 5854 5854 5853 5853 5853 5852 5852 5851 5851 5850 5849 5849 5848 5848 5848 5847 5847 5846 5846 5845 5845 5844 5844 5844 5843 5843 5843 5843 5843
5858 5858 5858 5858 5858 5857 5857 5857 5857 5857 5856 5856 5856 5855 5855 5854 5854 5854 5853 5854 5854 5853 5853 5853 5852 5852 5851 5852 5852 5852 5852 5852 5852 5852 5851 5850 5850 5852 5853 5853 5854 5855 5855 5856 5856 5854 5853 5853 5854 5853 5853 5852 5851 5851 5852 5852 5853 5853 5852 5852 5852 5851 5851 5850 5850 5849 5849 5848 5848 5847 5847 5846 5846 5845 5845 5844 5844 5843 5843 5843 5842 5842 5842 5842 5842
5856 5856 5856 5856 5856 5855 5855 5855 5856 5855 5855 5855 5854 5854 5853 5852 5852 5852 5852 5852 5851 5851 5851 5850 5849 5849 5849 5850 5850 5850 5850 5850 5850 5850 5849 5848 5848 5849 5850 5851 5852 5853 5853 5854 5854 5853 5852 5852 5852 5853 5852 5851 5851 5850 5851 5851 5852 5852 5852 5851 5851 5850 5850 5849 5849 5849 5848 5848 5847 5846 5846 5845 5845 5844 5844 5844 5843 5843 5842 5842 5841 5841 5841 5841 5841
5853 5853 5853 5853 5853 5853 5854 5854 5854 5854 5854 5853 5852 5851 5851 5850 5850 5849 5849 5849 5849 5849 5849 5848 5847 5847 5847 5848 5848 5847 5847 5847 5847 5847 5846 5846 5846 5846 5847 5848 5849 5851 5851 5852 5853 5852 5851 5851 5851 5851 5851 5850 5850 5849 5850 5850 5851 5851 5851 5851 5850 5850 5849 5849 5848 5848 5848 5847 5847 5846 5845 5845 5844 5843 5843 5842 5842 5842 5841 5840 5840 5840 5840 5840 5840
5851 5851 5851 5851 5851 5852 5852 5852 5852 5852 5851 5851 5850 5849 5848 5847 5847 5847 5847 5846 5846 5846 5846 5845 5845 5845 5845 5845 5845 5845 5844 5843 5844 5844 5844 5843 5843 5843 5844 5845 5846 5848 5848 5849 5850 5850 5849 5849 5849 5850 5850 5849 5848 5848 5849 5849 5849 5850 5849 5850 5850 5849 5849 5848 5848 5847 5847 5847 5846 5846 5845 5844 5843 5842 5842 5841 5841 5841 5840 5839 5839 5839 5839 5839 5839
5849 5849 5849 5849 5849 5849 5850 5850 5850 5850 5849 5848 5847 5846 5846 5845 5845 5845 5845 5844 5844 5843 5843 5843 5842 5842 5842 5842 5842 5842 5841 5840 5840 5840 5840 5840 5840 5840 5841 5842 5843 5845 5845 5846 5848 5848 5847 5848 5848 5848 5848 5847 5847 5847 5847 5848 5848 5848 5848 5849 5849 5848 5848 5847 5847 5847 5846 5846 5846 5845 5844 5843 5842 5841 5841 5840 5840 5839 5839 5839 5838 5838 5838 5838 5838
5847 5847 5846 5846 5847 5847 5847 5848 5847 5847 5846 5845 5845 5844 5844 5844 5843 5843 5842 5841 5841 5841 5841 5840 5840 5840 5839 5840 5840 5839 5838 5837 5837 5837 5837 5837 5837 5836 5837 5839 5840 5841 5842 5844 5846 5846 5846 5846 5847 5846 5846 5846 5845 5846 5846 5846 5847 5847 5847 5847 5847 5847 5847 5846 5846 5846 5846 5845 5845 5844 5844 5843 5841 5840 5840 5839 5839 5838 5838 5838 5837 5837 5837 5837 5837
5844 5844 5844 5844 5844 5844 5845 5845 5844 5844 5843 5843 5843 5843 5842 5842 5841 5841 5840 5839 5839 5839 5838 5838 5837 5837 5837 5837 5837 5836 5835 5835 5834 5834 5834 5834 5834 5833 5834 5836 5837 5838 5839 5841 5843 5844 5844 5844 5845 5845 5845 5844 5844 5844 5844 5844 5845 5845 5846 5846 5846 5846 5846 5845 5845 5844 5844 5844 5844 5843 5842 5842 5841 5840 5839 5838 5838 5838 5837 5837 5837 5837 5836 5836 5836
5841 5841 5841 5841 5841 5842 5842 5842 5842 5842 5842 5842 5841 5841 5840 5839 5839 5838 5838 5837 5837 5837 5836 5835 5835 5836 5835 5834 5834 5833 5833 5832 5832 5831 5831 5831 5831 5830 5831 5832 5833 5835 5836 5838 5840 5842 5842 5842 5843 5843 5843 5842 5842 5843 5843 5843 5843 5844 5844 5844 5844 5844 5844 5844 5843 5843 5843 5842 5842 5842 5841 5840 5840 5839 5838 5837 5837 5837 5836 5836 5836 5836 5836 5836 5835
5839 5839 5839 5839 5839 5839 5839 5839 5839 5839 5839 5839 5839 5838 5837 5837 5836 5835 5835 5835 5835 5834 5834 5833 5833 5833 5832 5831 5831 5830 5830 5830 5829 5828 5828 5828 5828 5828 5828 5829 5830 5832 5834 5835 5838 5839 5840 5840 5841 5841 5841 5841 5841 5841 5841 5841 5842 5842 5843 5843 5843 5843 5843 5843 5842 5842 5842 5841 5841 5840 5840 5839 5839 5838 5837 5837 5836 5836 5836 5836 5835 5835 5835 5835 5834
5837 5836 5836 5836 5836 5836 5837 5837 5837 5837 5837 5836 5836 5835 5835 5834 5833 5833 5832 5832 5832 5831 5831 5831 5830 5830 5829 5829 5828 5827 5827 5827 5826 5825 5825 5825 5826 5826 5826 5826 5827 5829 5831 5833 5835 5837 5838 5838 5839 5839 5839 5839 5839 5839 5839 5840 5840 5840 5841 5841 5841 5841 5841 5841 5841 5841 5840 5840 5840 5840 5839 5838 5838 5837 5837 5836 5835 5835 5835 5835 5835 5834 5834 5834 5834
5834 5834 5834 5834 5834 5834 5835 5834 5834 5834 5834 5834 5833 5832 5832 5831 5830 5830 5829 5829 5829 5828 5828 5828 5827 5827 5826 5826 5825 5824 5823 5823 5823 5822 5823 5823 5823 5824 5824 5824 5825 5827 5829 5830 5832 5833 5835 5836 5836 5837 5837 5837 5837 5837 5838 5838 5839 5839 5839 5840 5840 5840 5840 5840 5840 5840 5839 5839 5839 5839 5838 5838 5837 5837 5836 5835 5835 5835 5834 5834 5834 5834 5834 5833 5833
5832 5832 5832 5832 5832 5833 5832 5832 5832 5832 5832 5831 5831 5830 5830 5829 5828 5827 5827 5826 5825 5825 5825 5825 5824 5823 5823 5822 5822 5821 5821 5820 5820 5820 5820 5821 5821 5822 5821 5821 5823 5825 5827 5828 5829 5830 5831 5833 5834 5835 5835 5835 5836 5836 5836 5836 5837 5838 5838 5838 5839 5839 5839 5839 5839 5839 5838 5838 5838 5838 5837 5837 5837 5836 5835 5834 5834 5834 5834 5834 5833 5833 5833 5833 5832
5830 5830 5829 5830 5830 5831 5830 5830 5830 5830 5830 5829 5829 5828 5828 5827 5826 5825 5824 5823 5822 5822 5822 5821 5821 5820 5819 5818 5818 5818 5817 5817 5816 5817 5818 5819 5818 5819 5819 5819 5820 5822 5824 5826 5826 5827 5828 5830 5832 5833 5833 5834 5834 5834 5834 5835 5835 5836 5836 5837 5837 5838 5838 5838 5838 5837 5837 5837 5837 5837 5837 5836 5836 5836 5835 5834 5833 5833 5833 5833 5833 5833 5832 5832 5832
5828 5827 5827 5828 5828 5828 5828 5828 5828 5828 5827 5826 5826 5826 5825 5824 5823 5822 5821 5820 5819 5818 5818 5818 5817 5817 5816 5816 5816 5815 5814 5814 5813 5814 5816 5816 5816 5816 5817 5817 5818 5819 5821 5823 5824 5825 5826 5828 5829 5831 5832 5832 5832 5832 5833 5833 5834 5834 5835 5835 5836 5836 5836 5836 5836 5836 5836 5836 5836 5836 5836 5836 5835 5835 5834 5833 5832 5832 5832 5832 5832 5832 5832 5832 5831
5825 5825 5825 5825 5826 5825 5825 5825 5825 5824 5824 5823 5823 5823 5822 5821 5820 5819 5819 5818 5817 5817 5816 5816 5815 5814 5814 5814 5814 5813 5812 5812 5811 5812 5812 5813 5813 5813 5814 5815 5816 5817 5819 5821 5822 5822 5823 5825 5826 5828 5829 5830 5830 5830 5831 5831 5832 5833 5833 5834 5834 5834 5834 5835 5835 5835 5835 5835 5835 5835 5835 5835 5834 5834 5833 5832 5832 5832 5832 5831 5831 5831 5831 5831 5831
5823 5823 5823 5823 5823 5823 5822 5822 5822 5821 5821 5821 5821 5820 5819 5818 5817 5817 5817 5817 5816 5815 5815 5814 5813 5813 5812 5812 5812 5810 5810 5809 5809 5809 5809 5809 5809 5810 5811 5812 5814 5815 5817 5819 5820 5821 5821 5822 5823 5825 5827 5827 5828 5828 5829 5830 5831 5831 5831 5832 5832 5832 5833 5833 5833 5833 5833 5833 5833 5834 5834 5833 5833 5833 5832 5831 5831 5831 5831 5831 5831 5831 5831 5831 5830
5821 5821 5821 5821 5821 5821 5820 5820 5820 5819 5819 5819 5819 5818 5817 5816 5814 5814 5815 5815 5814 5813 5813 5812 5812 5812 5811 5810 5809 5808 5808 5807 5807 5807 5807 5806 5807 5807 5808 5809 5811 5813 5815 5817 5818 5818 5818 5819 5820 5822 5824 5825 5826 5826 5827 5828 5829 5829 5830 5830 5830 5830 5831 5831 5832 5832 5832 5832 5832 5832 5832 5832 5832 5832 5831 5830 5830 5830 5830 5830 5830 5830 5830 5830 5829
5819 5819 5819 5819 5819 5819 5819 5819 5818 5817 5818 5818 5817 5815 5815 5813 5812 5812 5811 5811 5811 5811 5811 5811 5811 5811 5810 5808 5807 5806 5805 5804 5804 5804 5804 5804 5805 5805 5806 5806 5807 5810 5813 5814 5815 5816 5815 5816 5817 5820 5822 5823 5824 5825 5825 5826 5827 5827 5828 5828 5828 5828 5829 5829 5830 5830 5830 5830 5830 5831 5831 5831 5831 5830 5830 5830 5830 5830 5829 5829 5829 5829 5829 5829 5829
5817 5817 5817 5817 5817 5817 5817 5817 5816 5816 5816 5815 5814 5813 5813 5812 5811 5811 5809 5808 5808 5808 5808 5809 5809 5809 5808 5807 5806 5805 5803 5803 5802 5802 5802 5802 5803 5803 5804 5805 5805 5807 5810 5812 5813 5814 5814 5814 5816 5818 5819 5820 5822 5822 5823 5824 5825 5826 5826 5826 5827 5827 5827 5828 5828 5828 5828 5828 5829 5829 5830 5830 5830 5829 5829 5829 5829 5828 5828 5828 5828 5828 5828 5828 5828
5815 5815 5815 5815 5815 5815 5815 5814 5814 5813 5813 5813 5812 5811 5811 5810 5810 5809 5808 5807 5806 5806 5806 5806 5806 5806 5806 5805 5805 5804 5803 5802 5801 5801 5801 5800 5801 5801 5801 5802 5803 5804 5807 5809 5811 5811 5812 5813 5814 5816 5817 5818 5819 5820 5821 5822 5823 5824 5824 5825 5825 5825 5826 5826 5826 5827 5827 5827 5827 5828 5828 5829 5828 5828 5828 5828 5827 5827 5827 5827 5827 5827 5827 5827 5827
5812 5812 5812 5812 5812 5812 5812 5812 5811 5811 5811 5810 5810 5809 5808 5808 5807 5807 5805 5805 5804 5804 5804 5804 5803 5802 5802 5802 5802 5802 5801 5801 5800 5800 5800 5799 5799 5799 5799 5800 5801 5802 5804 5807 5808 5809 5810 5811 5812 5814 5815 5816 5817 5818 5819 5820 5821 5822 5823 5823 5823 5824 5824 5824 5825 5825 5825 5825 5826 5826 5827 5827 5827 5827 5827 5827 5826 5826 5826 5826 5826 5826 5826 5826 5826
5810 5810 5810 5810 5810 5810 5810 5810 5809 5809 5808 5807 5807 5807 5806 5805 5805 5805 5804 5802 5802 5801 5801 5801 5801 5800 5800 5800 5799 5799 5799 5799 5799 5799 5799 5798 5798 5798 5798 5798 5799 5800 5802 5805 5806 5807 5808 5809 5810 5811 5813 5814 5815 5815 5816 5817 5819 5820 5820 5821 5822 5822 5822 5822 5823 5823 5824 5824 5824 5825 5825 5825 5826 5825 5825 5825 5825 5825 5825 5825 5825 5825 5825 5825 5825
5808 5808 5808 5808 5808 5808 5808 5807 5807 5806 5805 5804 5804 5803 5803 5802 5802 5802 5802 5800 5799 5798 5798 5798 5799 5798 5798 5798 5797 5796 5797 5797 5797 5797 5797 5797 5797 5797 5797 5797 5798 5798 5801 5803 5804 5805 5807 5807 5808 5809 5811 5811 5812 5813 5813 5815 5816 5817 5818 5819 5819 5820 5820 5821 5821 5822 5822 5822 5823 5823 5823 5824 5824 5824 5824 5824 5824 5824 5824 5824 5823 5823 5823 5823 5823
5806 5806 5805 5805 5805 5805 5805 5805 5804 5802 5801 5801 5800 5800 5799 5799 5799 5799 5799 5798 5797 5796 5796 5796 5796 5795 5795 5795 5795 5794 5794 5795 5795 5795 5794 5794 5794 5795 5795 5795 5796 5797 5799 5801 5802 5803 5804 5805 5806 5807 5808 5809 5809 5810 5811 5813 5814 5815 5816 5817 5817 5818 5818 5819 5819 5820 5821 5821 5821 5821 5822 5822 5822 5822 5822 5823 5823 5822 5822 5822 5822 5822 5822 5822 5822
5804 5804 5803 5803 5803 5803 5803 5802 5801 5799 5798 5798 5797 5796 5796 5796 5796 5796 5795 5795 5794 5794 5794 5794 5794 5794 5792 5792 5792 5792 5793 5793 5793 5793 5792 5791 5792 5792 5793 5793 5794 5795 5797 5799 5800 5800 5801 5802 5804 5805 5806 5807 5807 5808 5809 5811 5812 5813 5814 5815 5815 5816 5817 5817 5818 5818 5819 5819 5819 5819 5820 5820 5820 5820 5821 5821 5821 5821 5821 5820 5820 5820 5820 5820 5820
5802 5801 5801 5801 5801 5800 5800 5799 5798 5796 5795 5795 5794 5793 5792 5792 5792 5792 5792 5792 5792 5792 5792 5792 5792 5792 5791 5789 5789 5790 5791 5791 5791 5791 5790 5790 5790 5790 5790 5791 5792 5793 5795 5797 5797 5797 5798 5800 5802 5803 5804 5805 5805 5806 5807 5808 5809 5810 5811 5812 5813 5814 5815 5816 5816 5817 5817 5817 5817 5817 5817 5817 5818 5818 5818 5818 5818 5819 5819 5819 5819 5818 5818 5818 5818
5800 5799 5799 5799 5798 5798 5797 5796 5795 5794 5793 5792 5791 5790 5789 5789 5789 5789 5789 5789 5789 5790 5790 5790 5789 5789 5789 5788 5787 5787 5788 5788 5788 5789 5789 5788 5789 5789 5789 5788 5789 5791 5793 5794 5795 5796 5797 5798 5799 5800 5802 5803 5803 5804 5805 5806 5807 5809 5809 5810 5811 5812 5813 5813 5814 5815 5815 5815 5815 5815 5815 5815 5816 5816 5816 5816 5816 5817 5817 5817 5817 5817 5817 5817 5817
5798 5797 5796 5796 5795 5795 5794 5793 5792 5791 5791 5789 5789 5788 5787 5787 5786 5786 5786 5786 5786 5787 5787 5787 5786 5785 5785 5786 5785 5785 5784 5785 5786 5787 5787 5787 5787 5788 5787 5787 5787 5789 5791 5792 5793 5794 5795 5796 5797 5798 5799 5800 5802 5803 5803 5804 5806 5807 5808 5809 5809 5810 5811 5811 5812 5813 5813 5814 5813 5813 5813 5813 5814 5814 5814 5814 5815 5815 5815 5815 5815 5815 5815 5815 5815
5795 5795 5794 5793 5792 5792 5791 5790 5789 5789 5788 5787 5787 5786 5785 5785 5784 5784 5784 5784 5784 5784 5784 5783 5782 5782 5781 5782 5782 5782 5781 5781 5782 5783 5784 5784 5785 5786 5786 5786 5786 5787 5788 5790 5791 5792 5793 5794 5794 5795 5797 5798 5799 5800 5801 5802 5804 5805 5806 5807 5807 5808 5809 5810 5810 5810 5811 5811 5811 5811 5811 5811 5811 5812 5812 5812 5813 5813 5813 5813 5813 5813 5813 5813 5813